GW0759 Weather Reports


time (UTC)temp
C
wind
direction
speed
KPH
gust
KPH
rain 1hr
cm
rain 24hr
cm
rain mn
cm
humidity
%
barometer
mb
20260509201553 31 299 1.6 8.0 0.00 0.00 0.00 46 1007.5
20260509200053 31 175 1.6 9.7 0.00 0.00 0.00 47 1007.7
20260509194559 30 273 1.6 8.0 0.00 0.05 0.00 46 1007.9
20260509193054 30 290 3.2 14.5 0.00 0.05 0.00 48 1008.1
20260509191557 30 277 6.4 14.5 0.00 0.05 0.00 48 1008.1
20260509190101 30 298 4.8 11.3 0.00 0.05 0.00 52 1008.2
20260509184549 30 228 3.2 11.3 0.00 0.05 0.00 48 1008.3
20260509183056 30 220 6.4 20.9 0.00 0.05 0.00 51 1008.5
20260509181608 30 5 4.8 16.1 0.00 0.05 0.00 52 1008.6
20260509180056 30 25 3.2 12.9 0.00 0.05 0.00 52 1008.8
20260509174554 29 323 8.0 16.1 0.00 0.05 0.00 51 1008.9
20260509173057 28 287 6.4 16.1 0.00 0.05 0.00 51 1009.0
20260509171607 28 15 6.4 17.7 0.00 0.05 0.00 54 1009.2
20260509170047 28 355 6.4 16.1 0.00 0.05 0.00 53 1009.2
20260509164546 27 315 4.8 17.7 0.00 0.05 0.00 55 1009.3
20260509163059 27 304 8.0 19.3 0.00 0.05 0.00 60 1009.5
20260509161549 27 275 4.8 12.9 0.00 0.05 0.00 56 1009.4
20260509160048 26 277 3.2 12.9 0.00 0.05 0.00 59 1009.4
20260509154551 26 323 6.4 14.5 0.00 0.05 0.00 61 1009.4
20260509153051 26 355 6.4 12.9 0.00 0.05 0.00 65 1009.4
20260509151549 25 346 9.7 19.3 0.00 0.05 0.00 64 1009.2
20260509150050 24 333 12.9 19.3 0.00 0.05 0.00 66 1009.1
20260509144546 24 336 4.8 16.1 0.00 0.05 0.00 68 1009.2
20260509143052 23 343 11.3 17.7 0.00 0.05 0.00 72 1009.2
20260509141549 22 360 6.4 17.7 0.00 0.05 0.00 77 1009.2
20260509140051 21 336 9.7 20.9 0.00 0.05 0.00 81 1009.3
20260509134552 21 348 12.9 20.9 0.00 0.05 0.00 80 1009.4
20260509133058 21 304 12.9 20.9 0.00 0.05 0.00 82 1009.3
20260509131549 20 323 12.9 20.9 0.00 0.05 0.00 81 1009.1
20260509130046 20 342 12.9 20.9 0.00 0.05 0.00 81 1008.9
20260509124555 20 347 9.7 17.7 0.00 0.05 0.00 82 1008.9
20260509123049 18 325 6.4 12.9 0.00 0.05 0.00 83 1008.8
20260509121549 18 327 3.2 6.4 0.00 0.05 0.00 84 1008.7
20260509120050 18 0 0.0 0.0 0.00 0.05 0.00 86 1008.6
20260509114556 19 0 0.0 0.0 0.00 0.05 0.00 85 1008.8
20260509113050 19 0 0.0 4.8 0.00 0.05 0.00 87 1008.7
20260509111557 20 0 0.0 9.7 0.00 0.05 0.00 89 1008.5
20260509110058 20 279 3.2 12.9 0.00 0.05 0.00 90 1008.3
20260509104550 20 345 9.7 19.3 0.00 0.05 0.00 91 1008.3
20260509103050 20 344 6.4 24.1 0.00 0.05 0.00 92 1007.8
20260509101556 20 296 8.0 19.3 0.00 0.05 0.00 92 1007.6
20260509100105 20 188 6.4 25.7 0.00 0.05 0.00 92 1005.9
20260509094550 20 169 6.4 17.7 0.00 0.05 0.00 92 1005.9
20260509093055 20 190 6.4 19.3 0.00 0.05 0.00 92 1005.3
20260509091556 20 198 4.8 12.9 0.00 0.05 0.00 92 1005.9
20260509090052 20 188 6.4 14.5 0.00 0.05 0.00 92 1006.5
20260509084557 20 200 4.8 12.9 0.00 0.05 0.00 92 1006.8
20260509083057 20 148 4.8 12.9 0.00 0.05 0.00 92 1007.0
20260509081551 20 169 3.2 12.9 0.00 0.05 0.00 92 1007.6
20260509080106 20 0 1.6 6.4 0.00 0.05 0.00 92 1008.3
20260509074551 20 138 0.0 11.3 0.00 0.05 0.00 92 1009.2
20260509073149 20 335 4.8 32.2 0.00 0.05 0.00 93 1010.3
20260509071556 19 338 9.7 20.9 0.00 0.05 0.00 93 1010.7
20260509070054 19 328 4.8 8.0 0.00 0.05 0.00 93 1010.3
20260509064552 19 320 4.8 14.5 0.00 0.05 0.00 93 1010.5
20260509063049 19 331 1.6 12.9 0.00 0.05 0.00 93 1010.0
20260509061556 18 155 3.2 8.0 0.00 0.05 0.00 92 1009.8
20260509060051 18 0 0.0 0.0 0.00 0.05 0.00 92 1009.4
20260509054554 18 0 0.0 0.0 0.00 0.05 0.00 92 1008.8
20260509053051 18 0 0.0 0.0 0.00 0.05 0.00 91 1008.8
20260509051558 19 0 0.0 0.0 0.00 0.05 0.00 91 1008.9
20260509050053 20 0 0.0 3.2 0.00 0.05 0.00 89 1009.0
20260509044555 20 155 1.6 4.8 0.00 0.05 0.05 89 1009.2
20260509043058 20 0 0.0 4.8 0.00 0.05 0.05 89 1008.8
20260509041548 20 0 1.6 9.7 0.00 0.05 0.05 88 1008.2
20260509040104 20 117 3.2 8.0 0.00 0.05 0.05 88 1008.5
20260509034553 21 26 1.6 9.7 0.00 0.05 0.05 87 1008.3
20260509033054 21 156 1.6 12.9 0.00 0.05 0.05 86 1008.0
20260509031554 21 146 3.2 14.5 0.00 0.05 0.05 85 1007.9
20260509030055 21 183 4.8 11.3 0.00 0.05 0.05 85 1007.9
20260509024548 21 103 3.2 9.7 0.00 0.05 0.05 85 1007.9
20260509023053 22 176 3.2 8.0 0.00 0.05 0.05 84 1007.7
20260509021549 22 0 0.0 6.4 0.00 0.05 0.05 84 1007.6
20260509020054 22 0 0.0 6.4 0.00 0.05 0.05 84 1007.6
20260509014550 22 0 0.0 8.0 0.00 0.05 0.05 83 1007.4
20260509013102 22 159 1.6 11.3 0.00 0.05 0.05 83 1007.3
20260509011553 22 130 1.6 9.7 0.00 0.05 0.05 82 1007.2
20260509010056 22 151 1.6 8.0 0.00 0.05 0.05 82 1006.9
20260509004609 22 127 1.6 8.0 0.00 0.05 0.05 81 1006.6
20260509003058 22 0 0.0 3.2 0.00 0.05 0.05 81 1006.8
20260509001550 22 0 1.6 8.0 0.00 0.05 0.05 80 1006.9
20260509000053 23 143 1.6 6.4 0.00 0.05 0.05 79 1007.0
20260508234551 23 139 0.0 11.3 0.00 0.05 0.05 78 1006.8
20260508233058 24 138 1.6 9.7 0.00 0.05 0.05 77 1006.7
20260508231551 25 88 1.6 11.3 0.00 0.05 0.05 76 1006.7
20260508230100 25 148 6.4 16.1 0.00 0.05 0.05 74 1006.6
20260508224550 25 93 8.0 16.1 0.00 0.05 0.05 74 1006.7
20260508223053 23 198 6.4 17.7 0.00 0.05 0.05 76 1006.9
20260508221551 24 111 4.8 12.9 0.00 0.05 0.05 73 1007.1
20260508220053 24 156 3.2 12.9 0.00 0.05 0.05 74 1007.3
20260508214551 22 196 4.8 9.7 0.00 0.05 0.05 78 1007.6
20260508213053 22 134 3.2 12.9 0.00 0.05 0.05 77 1007.7
20260508211549 22 156 0.0 9.7 0.00 0.05 0.05 79 1007.9
20260508210106 23 123 4.8 17.7 0.00 0.05 0.05 77 1008.2
20260508204555 23 85 8.0 22.5 0.00 0.05 0.05 75 1007.9
20260508203049 21 113 8.0 20.9 0.05 0.05 0.05 81 1007.7